Boone, NC

3:27 AM EDT on August 24, 2017 (GMT -0400)
Boone

Weather History for KTNB - July, 2014

Change the Weather History Date:

Monday, July 14, 2014

  Actual Average (KGEV) Record (KGEV)
Temperature  
Mean Temperature 74 °F -  
Max Temperature 85 °F 81 °F 90 °F (1993)
Min Temperature 62 °F 60 °F 50 °F (1969)
Cooling Degree Days 8    
Growing Degree Days 24 (Base 50)    
Moisture  
Dew Point 63 °F    
Average Humidity 77    
Maximum Humidity 100    
Minimum Humidity 38    
Precipitation  
Precipitation 0.49 in - - ()
Sea Level Pressure  
Sea Level Pressure 30.11 in    
Wind  
Wind Speed 4 mph (West)    
Max Wind Speed 18 mph    
Max Gust Speed 26 mph    
Visibility 8 miles    
Events Rain , Thunderstorm    
Averages and records for this station are not official NWS values.
T = Trace of Precipitation, MM = Missing Value Source: NWS Daily Summary

Daily Weather History Graph

Daily Weather History Graph

Search for Another Location

Airport or City:

Trip Planner

Search our weather history database for the weather conditions in past years. The results will help you decide how hot, cold, wet, or windy it might be!

Date:

Astronomy

Jul. 14, 2014 Rise Set
Actual Time 6:20 AM EDT 8:44 PM EDT
Civil Twilight 5:50 AM EDT 9:14 PM EDT
Nautical Twilight 5:14 AM EDT 9:50 PM EDT
Astronomical Twilight 4:33 AM EDT 10:30 PM EDT
Moon 10:20 PM EDT (7/14) 8:55 AM EDT (7/14)
Length of Visible Light 15h 23m
Length of Day
14h 24m
Waning Gibbous, 93% of the Moon is Illuminated
Jul 14
Waning Gibbous
Jul 18
Last Quarter
Jul 26
New
Aug 3
First Quarter
Aug 10
Full

Hourly Weather History & Observations

Time (EDT) Temp. Heat Index Dew Point Humidity Pressure Visibility Wind Dir Wind Speed Gust Speed Precip Events Conditions
12:15 AM 67.5 °F - 65.5 °F 93% 30.18 in 10.0 mi Calm Calm - N/A   Clear
12:35 AM 67.3 °F - 65.7 °F 95% 30.17 in 10.0 mi West 3.5 mph - N/A   Scattered Clouds
12:55 AM 67.1 °F - 65.3 °F 94% 30.17 in 10.0 mi Calm Calm - N/A   Clear
1:15 AM 66.7 °F - 64.9 °F 94% 30.17 in 10.0 mi West 3.5 mph - N/A   Clear
1:35 AM 66.4 °F - 64.8 °F 95% 30.16 in 10.0 mi Calm Calm - N/A   Clear
1:55 AM 64.8 °F - 64.8 °F 100% 30.16 in 5.0 mi Calm Calm - N/A   Clear
2:15 AM 65.1 °F - 64.6 °F 98% 30.16 in 7.0 mi Calm Calm - N/A   Clear
2:35 AM 64.4 °F - 64.4 °F 100% 30.16 in 7.0 mi Calm Calm - N/A   Clear
2:55 AM 64.8 °F - 64.6 °F 99% 30.15 in 7.0 mi Calm Calm - N/A   Clear
3:15 AM 63.5 °F - 63.5 °F 100% 30.15 in 5.0 mi Calm Calm - N/A   Clear
3:35 AM 62.2 °F - 62.2 °F 100% 30.14 in 2.5 mi Calm Calm - N/A   Clear
3:55 AM 62.6 °F - 62.6 °F 100% 30.14 in 2.5 mi Calm Calm - N/A   Scattered Clouds
4:15 AM 63.7 °F - 63.7 °F 100% 30.14 in 7.0 mi Calm Calm - N/A   Mostly Cloudy
4:35 AM 63.0 °F - 63.0 °F 100% 30.13 in 3.0 mi Calm Calm - N/A   Overcast
4:55 AM 64.4 °F - 64.4 °F 100% 30.13 in 7.0 mi Calm Calm - N/A   Mostly Cloudy
5:15 AM 64.2 °F - 64.2 °F 100% 30.14 in 7.0 mi Calm Calm - N/A   Scattered Clouds
5:35 AM 64.2 °F - 64.0 °F 99% 30.14 in 7.0 mi Calm Calm - N/A   Clear
5:55 AM 63.9 °F - 63.9 °F 100% 30.14 in 5.0 mi Calm Calm - N/A   Scattered Clouds
6:15 AM 64.2 °F - 64.0 °F 99% 30.14 in 5.0 mi West 4.6 mph - N/A   Scattered Clouds
6:35 AM 64.4 °F - 64.2 °F 99% 30.14 in 7.0 mi WNW 3.5 mph - N/A   Clear
6:55 AM 67.8 °F - 64.6 °F 89% 30.14 in 10.0 mi WNW 3.5 mph - N/A   Clear
7:15 AM 69.8 °F - 63.9 °F 81% 30.14 in 10.0 mi West 6.9 mph - N/A   Clear
7:35 AM 70.2 °F - 61.9 °F 75% 30.14 in 10.0 mi West 4.6 mph - N/A   Clear
7:55 AM 70.7 °F - 62.1 °F 74% 30.14 in 10.0 mi West 8.1 mph - N/A   Clear
8:15 AM 70.9 °F - 62.4 °F 75% 30.14 in 10.0 mi West 8.1 mph 16.1 mph N/A   Clear
8:35 AM 71.4 °F - 62.2 °F 73% 30.14 in 10.0 mi West 12.7 mph - N/A   Clear
8:55 AM 72.3 °F - 62.2 °F 70% 30.14 in 10.0 mi West 6.9 mph - N/A   Clear
9:15 AM 73.0 °F - 62.1 °F 68% 30.14 in 10.0 mi West 10.4 mph 19.6 mph N/A   Clear
9:35 AM 74.3 °F - 61.9 °F 65% 30.15 in 10.0 mi WNW 13.8 mph 19.6 mph N/A   Clear
9:55 AM 74.8 °F - 61.5 °F 63% 30.14 in 10.0 mi WNW 13.8 mph 18.4 mph N/A   Clear
10:15 AM 75.6 °F - 60.6 °F 60% 30.14 in 10.0 mi WNW 18.4 mph 23.0 mph N/A   Clear
10:35 AM 76.6 °F - 60.3 °F 57% 30.14 in 10.0 mi WNW 13.8 mph 25.3 mph N/A   Clear
10:55 AM 77.0 °F - 60.3 °F 56% 30.14 in 10.0 mi West 13.8 mph 24.2 mph N/A   Clear
11:15 AM 77.7 °F - 60.3 °F 55% 30.14 in 10.0 mi West 17.3 mph 25.3 mph N/A   Clear
11:35 AM 78.3 °F - 60.1 °F 53% 30.14 in 10.0 mi WNW 15.0 mph 20.7 mph N/A   Clear
11:55 AM 79.0 °F - 59.7 °F 52% 30.14 in 10.0 mi WNW 11.5 mph 18.4 mph N/A   Scattered Clouds
12:15 PM 78.3 °F - 59.5 °F 52% 30.14 in 10.0 mi NW 11.5 mph 16.1 mph N/A   Mostly Cloudy
12:35 PM 79.5 °F - 60.1 °F 51% 30.13 in 10.0 mi West 5.8 mph - N/A   Scattered Clouds
12:55 PM 80.8 °F 81.1 °F 58.1 °F 46% 30.12 in 10.0 mi West 8.1 mph - N/A   Scattered Clouds
1:15 PM 81.5 °F 81.5 °F 57.9 °F 44% 30.12 in 10.0 mi West 5.8 mph - N/A   Mostly Cloudy
1:35 PM 80.8 °F 80.9 °F 56.8 °F 44% 30.11 in 10.0 mi NNW 9.2 mph - N/A   Mostly Cloudy
1:55 PM 80.2 °F 80.5 °F 57.2 °F 45% 30.10 in 10.0 mi West 3.5 mph 9.2 mph N/A   Mostly Cloudy
2:15 PM 82.6 °F 82.2 °F 57.6 °F 42% 30.09 in 10.0 mi Calm Calm - N/A   Mostly Cloudy
2:35 PM 81.7 °F 81.6 °F 57.6 °F 44% 30.08 in 10.0 mi West 4.6 mph - N/A   Scattered Clouds
2:55 PM 80.4 °F 81.3 °F 60.6 °F 51% 30.07 in 10.0 mi SW 3.5 mph - N/A   Mostly Cloudy
3:15 PM 84.7 °F 85.0 °F 61.0 °F 45% 30.07 in 10.0 mi Calm Calm - N/A   Mostly Cloudy
3:35 PM 85.5 °F 84.5 °F 56.8 °F 38% 30.07 in 10.0 mi SSW 5.8 mph - N/A   Scattered Clouds
3:55 PM 83.5 °F 82.8 °F 56.5 °F 40% 30.06 in 10.0 mi SSW 9.2 mph - N/A   Clear
4:15 PM 82.8 °F 83.4 °F 61.9 °F 49% 30.05 in 10.0 mi South 12.7 mph 18.4 mph N/A   Scattered Clouds
4:35 PM 80.4 °F 82.0 °F 63.7 °F 57% 30.05 in 10.0 mi South 15.0 mph 20.7 mph N/A   Clear
4:55 PM 79.9 °F - 63.3 °F 57% 30.05 in 10.0 mi SSW 10.4 mph - N/A   Clear
5:15 PM 81.5 °F 82.8 °F 63.3 °F 54% 30.05 in 10.0 mi SSW 4.6 mph 20.7 mph N/A   Clear
5:55 PM 79.3 °F - 63.3 °F 58% 30.04 in 10.0 mi SW 6.9 mph 20.7 mph N/A   Scattered Clouds
6:35 PM 77.0 °F - 64.0 °F 64% 30.04 in 10.0 mi SSW 3.5 mph - N/A Thunderstorm Scattered Clouds
6:55 PM 74.1 °F - 64.2 °F 71% 30.04 in 10.0 mi NE 6.9 mph - N/A Thunderstorm Overcast
7:15 PM 71.4 °F - 64.4 °F 78% 30.06 in 7.0 mi NW 18.4 mph 26.5 mph 0.05 in Rain , Thunderstorm Heavy Thunderstorms and Rain
7:35 PM 68.0 °F - 67.1 °F 97% 30.08 in 2.5 mi SSE 8.1 mph - 0.37 in Rain , Thunderstorm Heavy Thunderstorms and Rain
7:55 PM 68.5 °F - 67.1 °F 95% 30.08 in 4.0 mi North 5.8 mph - 0.42 in Rain , Thunderstorm Rain
8:15 PM 67.5 °F - 66.6 °F 97% 30.08 in 3.0 mi Calm Calm - 0.05 in Rain Rain
8:35 PM 68.0 °F - 67.8 °F 99% 30.09 in 7.0 mi North 3.5 mph - 0.06 in Rain Light Rain
8:55 PM 68.2 °F - 67.1 °F 96% 30.08 in 10.0 mi Calm Calm - 0.06 in Thunderstorm Scattered Clouds
9:15 PM 66.2 °F - 66.2 °F 100% 30.06 in 4.0 mi Calm Calm - N/A Rain Light Rain
9:35 PM 66.6 °F - 66.6 °F 100% 30.06 in 3.0 mi Calm Calm - N/A Thunderstorm Mostly Cloudy
9:55 PM 66.4 °F - 66.4 °F 100% 30.07 in 4.0 mi Calm Calm - N/A   Mostly Cloudy
10:35 PM 68.0 °F - 67.1 °F 97% 30.07 in 10.0 mi WNW 6.9 mph - 0.01 in   Mostly Cloudy
11:15 PM 68.0 °F - 66.6 °F 95% 30.05 in 10.0 mi Calm Calm - N/A   Scattered Clouds
11:35 PM 67.3 °F - 66.4 °F 97% 30.04 in 10.0 mi Calm Calm - N/A   Scattered Clouds
11:55 PM 65.5 °F - 65.5 °F 100% 30.04 in 7.0 mi Calm Calm - N/A Thunderstorm Clear